Location: Miss�
(46.9484°N, 0.1922°W)
Time: 04:02:03
(UTC+00:00)

Cosmos 2242 Rocket - Pass Details

Date: 02 March 2021
Orbit: 617 x 652 km, 82.5° (Epoch: 17 April)

Event Time Altitude Azimuth Distance (km) Brightness Sun altitude
Rises 18:42:55 0° 358° (N) 2,964 7.1 -10.2°
Reaches altitude 10° 18:45:22 10° 8° (N) 2,044 6.2 -10.6°
Maximum altitude 18:49:29 33° 73° (ENE) 1,070 4.3 -11.3°
Drops below altitude 10° 18:53:32 10° 138° (SE) 2,009 5.8 -12.0°
Enters shadow 18:54:52 - 145° (SE) 2,501 6.3 -12.2°
